Meteo Giornale » Osservazioni meteo Gran Bretagna » Londra City AP

ore: 16:20 - Osservazioni Meteo Londra City AP
Lat. 51° 30' N Lon. 0° 30' W Alt. 5 metri s.l.m.

sereno Europe/London

13 °C

Sereno

Temp. 24 Ore

6 °C

14 °C

Est

24 Km/h

Dew point 6 °C

Umidità 62 %

Visibilità  10 Km

Il sole sorge alle ore 05:47

Il sole tramonta alle ore 18:27

Data e Ora Cielo e Fenomeni T °C DP °C Um. % Pres. hPa Vis. km Vento km/h
Oggi h: 16:20 sereno Sereno 13 6 62 1023 10 E 24
Oggi h: 15:50 sereno Sereno 13 6 62 1023 10 E 35.2
Oggi h: 15:20 sereno Sereno 13 5 58 1024 10 E 33.3
Oggi h: 14:50 sereno Sereno 14 5 54 1024 10 E 35.2
Oggi h: 14:20 sereno Sereno 14 5 54 1024 10 E 29.6
Oggi h: 13:50 sereno Sereno 14 5 54 1024 10 E 37
Oggi h: 13:20 sereno Sereno 14 5 54 1024 10 E/NE 35.2
Oggi h: 12:50 sereno Sereno 14 5 54 1024 10 E/NE 35.2
Oggi h: 12:20 sereno Sereno 14 6 58 1024 10 E 31.5
Oggi h: 11:50 sereno Sereno 13 6 62 1024 10 E/NE 29.6
Oggi h: 11:20 sereno Sereno 13 6 62 1024 10 E 33.3
Oggi h: 10:50 sereno Sereno 13 5 58 1024 10 E 29.6
Oggi h: 10:20 sereno Sereno 12 5 62 1025 10 E 27.8
Oggi h: 09:50 sereno Sereno 12 6 66 1025 10 E 27.8
Oggi h: 09:20 sereno Sereno 11 6 71 1025 10 E 27.8
Oggi h: 08:50 nuvoloso Nuvoloso 10 6 76 1025 10 E 27.8
Oggi h: 08:20 molto_nuvoloso Molto Nuvoloso 9 6 81 1025 10 E/NE 22.2
Oggi h: 07:50 molto_nuvoloso Molto Nuvoloso 9 6 81 1025 10 E/NE 24
Oggi h: 07:20 nuvoloso Nuvoloso 8 6 87 1025 10 E/NE 18.5
Oggi h: 06:50 molto_nuvoloso Molto Nuvoloso 7 5 87 1025 10 E/NE 13
Oggi h: 06:20 poco_nuvoloso Poco Nuvoloso 7 5 87 1024 10 NE 11.1
Oggi h: 05:50 nuvoloso Nuvoloso 7 4 81 1024 10 NE 11.1
Oggi h: 05:20 sereno Sereno 7 4 81 1024 10 NE 9.3
Oggi h: 04:50 sereno Sereno 7 4 81 1024 10 NE 13
Oggi h: 04:20 sereno Sereno 7 4 81 1024 10 NE 14.8
Oggi h: 03:50 sereno Sereno 7 3 75 1024 10 E/NE 11.1
Oggi h: 03:20 sereno Sereno 6 2 75 1024 10 E/NE 9.3
Oggi h: 02:50 sereno Sereno 6 2 75 1024 10 E/NE 13
Oggi h: 02:20 sereno Sereno 6 1 70 1025 10 NE 9.3
Oggi h: 02:50 sereno Sereno 7 1 65 1025 10 NE 11.1
Oggi h: 02:20 sereno Sereno 7 -0 60 1025 10 NE 14.8
Oggi h: 00:50 sereno Sereno 7 -1 56 1026 10 E/NE 13
Oggi h: 00:20 sereno Sereno 7 -2 52 1026 10 E/NE 9.3
Ieri h: 23:50 sereno Sereno 8 -3 45 1026 10 E/NE 13
Ieri h: 23:20 sereno Sereno 8 -3 45 1026 10 E/NE 11.1
Ieri h: 22:50 sereno Sereno 8 -3 45 1026 10 E/NE 14.8
Ieri h: 22:20 sereno Sereno 8 -4 42 1026 10 E/NE 18.5
Ieri h: 21:50 sereno Sereno 9 -4 39 1026 10 E/NE 18.5
Ieri h: 21:20 sereno Sereno 9 -4 39 1026 10 E/NE 18.5
Ieri h: 20:50 sereno Sereno 9 -5 36 1026 10 NE 14.8
Ieri h: 20:20 sereno Sereno 10 -5 34 1026 10 E/NE 22.2
Ieri h: 19:50 sereno Sereno 10 -6 31 1026 10 NE 22.2
Ieri h: 19:20 sereno Sereno 11 -6 29 1026 10 NE 22.2
Ieri h: 18:50 sereno Sereno 11 -6 29 1026 10 NE 22.2
Ieri h: 18:20 sereno Sereno 12 -5 30 1026 10 NE 20.3
Ieri h: 17:50 sereno Sereno 12 -6 27 1026 10 E/NE 25.9
Ieri h: 17:20 sereno Sereno 13 -6 26 1026 10 E/NE 25.9
Ieri h: 16:50 sereno Sereno 13 -5 28 1026 10 E/NE 27.8